SCP
0 0 0 0 0 0 0 0 0 0 0 0 0 0 0 0 1 1 1 1 2 2 2 2 2 2 2 2 2 1 1 1 1 1 1 0 0 0 0 0 0 0 1 1 1 1 0 0 0
0 0 0 0 0 0 0 0 0 0 0 0 0 0 0 0 0 1 1 2 2 2 2 2 2 2 2 2 2 1 1 1 1 1 1 0 0 0 0 0 0 0 0 0 1 0 0 0 0
0 0 0 0 0 0 0 0 0 0 0 0 0 0 0 0 0 1 2 2 3 3 2 3 3 2 2 2 2 2 1 1 1 1 1 0 0 0 0 0 0 0 0 0 1 0 0 0 0
0 0 0 0 0 0 0 0 0 0 0 0 0 0 0 0 1 1 2 3 3 3 3 3 3 3 2 2 2 2 1 1 1 1 1 1 1 0 0 0 0 0 0 1 1 0 0 0 0
0 0 0 0 0 0 0 0 0 0 0 0 0 0 1 1 1 1 2 3 3 3 3 3 3 3 2 2 2 2 2 1 1 1 1 1 1 1 1 0 0 0 0 1 1 0 0 0 0
1 0 0 0 0 0 0 0 0 0 0 0 0 0 1 1 1 1 2 3 3 3 3 3 3 3 3 2 2 2 2 2 1 1 1 1 1 1 1 1 1 0 0 0 0 0 0 0 0
1 0 0 0 0 0 0 0 0 0 0 0 0 0 1 1 1 1 2 3 3 3 3 4 3 3 2 2 2 2 2 2 2 1 1 1 1 1 1 1 1 1 0 0 0 0 0 0 0
1 0 0 0 0 0 0 0 0 0 0 0 0 0 1 1 1 2 3 3 3 4 4 4 3 3 2 2 2 2 2 1 2 1 1 1 1 1 1 1 1 1 0 0 0 0 0 0 0
0 0 0 0 0 0 0 0 0 0 0 0 0 1 1 1 2 2 2 3 3 4 4 4 3 3 2 2 2 2 1 1 1 1 1 1 1 1 1 1 0 0 0 0 0 0 0 0 0
0 0 0 0 0 0 0 0 0 0 0 0 1 1 1 2 2 2 2 2 3 4 3 3 3 3 3 2 2 2 1 1 1 1 1 1 1 1 0 0 0 0 0 0 0 0 0 0 0
0 0 0 0 0 0 0 0 0 0 0 0 1 1 1 2 2 2 2 2 3 3 3 3 3 3 3 3 2 2 2 1 1 1 1 1 1 0 0 0 0 0 0 0 0 0 0 0 0
0 0 0 0 0 0 0 0 0 0 0 0 1 1 1 2 2 2 1 2 2 2 2 2 2 3 3 3 3 2 2 2 1 1 1 1 1 1 1 1 1 1 0 0 0 0 0 0 0
0 0 0 0 0 0 0 0 0 0 0 0 1 1 1 2 2 1 1 1 2 1 1 1 2 2 2 2 3 2 2 2 1 1 1 1 1 1 1 1 1 1 1 0 0 0 0 0 0
0 0 0 0 0 0 0 0 0 0 0 0 1 1 1 1 1 1 1 1 1 1 1 1 1 1 1 2 2 2 2 2 1 1 1 1 1 1 1 1 1 1 1 1 0 0 0 0 0
0 0 0 0 0 0 0 0 0 0 0 0 0 1 1 1 1 1 1 1 1 1 1 1 1 1 1 1 1 1 1 1 1 1 1 1 0 1 1 1 1 1 1 1 1 0 0 0 0
0 0 0 0 0 0 0 0 0 0 0 0 0 0 1 1 1 1 1 1 1 1 1 1 1 1 1 1 1 1 1 1 1 1 1 0 0 0 1 1 1 1 1 1 1 1 1 0 0
0 0 0 0 0 0 0 0 0 0 0 0 0 0 0 1 1 1 1 1 1 1 1 1 1 1 1 1 1 1 0 0 0 0 0 0 0 0 0 0 1 1 1 1 1 1 1 1 1
0 0 0 0 0 0 0 0 0 0 0 0 0 0 0 0 1 1 1 1 1 1 1 1 1 1 1 0 0 0 0 0 0 0 0 0 0 0 0 0 0 0 1 1 1 1 1 1 1
0 0 0 0 0 0 0 0 0 0 0 0 0 0 0 0 0 1 1 1 1 1 1 1 1 0 0 0 0 0 0 0 0 0 0 0 0 0 0 0 0 0 0 0 0 1 1 1 1
0 0 0 0 0 0 0 0 0 0 0 0 0 0 0 0 0 1 1 1 1 1 1 1 1 0 0 0 0 0 0 0 0 0 0 0 0 0 0 0 0 0 0 0 0 0 0 1 1
0 0 0 0 0 0 0 0 0 0 0 0 0 0 0 0 0 0 1 1 1 1 1 1 0 0 0 0 0 0 0 0 0 0 0 0 0 0 0 0 0 0 0 0 0 0 0 0 0
0 0 0 0 0 0 0 0 0 0 0 0 0 0 0 0 0 0 0 1 1 1 1 1 1 0 0 0 0 0 0 0 0 0 0 0 0 0 0 0 0 0 0 0 0 0 0 0 0
0 0 0 0 0 0 0 0 0 0 0 0 0 0 0 0 0 0 0 0 1 1 1 1 1 0 0 0 0 0 0 0 0 0 0 0 0 0 0 0 0 0 0 0 0 0 0 0 0
0 0 0 0 0 0 0 0 0 0 0 0 0 0 0 0 0 0 0 0 0 1 1 1 1 0 0 0 0 0 0 0 0 0 0 0 0 0 0 0 0 0 0 0 0 0 0 0 0
0 0 0 0 0 0 0 0 0 0 0 0 0 0 0 0 0 0 0 0 0 1 1 1 0 0 0 0 0 0 0 0 0 0 0 0 0 0 0 0 0 0 0 0 0 0 0 0 0
0 0 0 0 0 0 0 0 0 0 0 0 0 0 0 0 0 0 0 0 0 0 0 1 0 0 0 0 0 0 0 0 0 0 0 0 0 0 0 0 0 0 0 0 0 0 0 0 0
0 0 0 0 0 0 0 0 0 0 0 0 0 0 0 0 0 0 0 0 0 0 0 0 0 0 0 0 0 0 0 0 0 0 0 0 0 0 0 0 0 0 0 0 0 0 0 0 0
0 0 0 0 0 0 0 0 0 0 0 0 0 0 0 0 0 0 0 0 0 0 0 0 0 0 0 0 0 0 0 0 0 0 0 0 0 0 0 0 0 0 0 0 0 0 0 0 0
0 0 0 0 0 0 0 0 0 0 0 0 0 0 0 0 0 0 0 0 0 0 0 0 0 0 0 0 0 0 0 0 0 0 0 0 0 0 0 0 0 0 0 0 0 0 0 0 0
0 0 0 0 0 0 0 0 0 0 0 0 0 0 0 0 0 0 0 0 0 0 0 0 0 0 0 0 0 0 0 0 0 0 0 0 0 0 0 0 0 0 0 0 0 0 0 0 0
Wind_Speed
10 9 5 2 2 4 9 6 3 0 2 4 5 5 6 6 5 7 4 5 7 8 7 7 10 11 11 11 11 11 11 11 11 11 11 12 12 12 12 12 13 13 13 13 13 13 14 14 13
8 6 3 2 4 6 7 6 4 1 4 3 4 4 5 7 7 8 4 5 6 7 7 7 10 11 11 11 11 11 11 11 11 11 11 11 11 12 12 12 12 13 13 13 13 13 13 13 12
8 5 3 3 5 7 5 2 5 5 4 3 3 5 5 5 6 5 5 5 6 7 7 8 10 11 11 12 11 11 11 11 11 11 11 11 11 11 12 12 12 12 12 12 12 12 12 12 12
4 3 4 5 9 7 4 1 5 5 3 3 5 5 5 5 4 6 6 6 7 7 7 8 10 11 11 11 11 11 11 11 11 10 11 11 11 12 12 11 11 11 11 12 12 11 12 11 11
3 3 5 7 10 6 1 2 4 4 4 4 4 5 6 5 8 8 6 6 7 7 7 8 10 11 11 11 11 10 10 11 11 11 11 11 11 11 11 11 11 11 11 11 11 11 11 11 10
3 3 5 8 9 6 3 1 1 3 3 4 3 4 5 5 7 6 6 5 7 7 7 7 10 10 10 10 10 10 10 10 11 10 10 11 11 11 11 11 11 10 10 11 11 10 10 10 10
3 3 7 8 7 5 3 2 3 3 3 2 2 5 6 5 5 5 6 6 6 6 6 5 5 7 9 10 10 10 10 10 10 10 10 10 10 10 11 10 10 10 10 10 10 10 10 9 9
3 3 7 8 7 5 1 1 1 1 2 2 2 3 5 6 6 5 6 6 6 6 5 5 5 4 5 6 8 9 9 9 9 9 9 9 8 9 10 9 10 10 10 9 9 9 9 8 7
4 4 7 5 5 2 2 1 1 4 4 3 5 6 6 11 8 6 5 5 5 5 4 4 4 4 4 4 6 7 7 7 7 7 8 6 3 4 5 7 8 9 9 8 8 8 8 7 6
3 5 6 3 4 1 2 2 3 2 3 2 4 7 9 9 8 7 6 5 5 4 4 3 4 4 3 3 4 3 3 4 4 4 4 3 3 3 4 6 8 8 8 7 7 6 6 4 2
3 4 2 3 5 3 1 1 1 2 2 3 5 7 8 7 7 6 5 5 5 5 4 3 3 3 3 2 3 2 2 2 3 3 3 3 3 3 3 2 3 3 4 3 4 3 2 2 2
5 3 3 3 4 3 1 0 1 1 0 3 5 9 9 8 7 6 6 5 5 5 4 4 4 4 3 2 2 2 2 2 2 3 3 3 2 2 2 2 2 2 1 2 2 1 2 3 3
7 5 3 2 2 2 2 1 1 2 1 3 6 8 7 7 6 5 5 5 5 4 4 4 4 4 3 2 2 3 2 2 3 3 3 3 2 2 2 2 2 2 2 2 2 2 2 3 3
3 3 3 3 3 2 3 3 3 4 3 4 6 6 6 6 5 5 5 5 5 5 4 3 4 4 3 3 3 3 3 3 3 3 3 3 2 2 2 2 2 2 2 2 2 2 2 2 3
2 3 4 4 4 3 3 6 6 5 4 5 6 6 5 5 4 4 5 4 4 4 4 4 4 4 4 4 4 3 3 3 3 3 3 3 3 2 2 2 2 2 2 2 2 2 2 3 3
3 4 5 5 6 4 5 8 4 5 6 6 6 5 5 5 5 4 5 4 4 4 5 4 3 4 5 4 4 3 3 3 2 2 3 4 4 3 2 2 2 2 2 2 2 2 2 2 2
5 6 6 4 6 5 7 6 2 3 5 5 4 5 5 5 4 4 5 5 4 4 5 4 4 4 5 4 3 3 3 3 3 3 3 3 4 3 3 2 2 2 2 2 2 2 2 2 2
4 6 6 5 4 4 6 6 2 2 4 4 4 4 5 5 4 4 5 5 5 4 5 5 5 5 5 4 4 3 3 3 3 3 3 3 3 4 3 3 3 3 2 2 2 2 2 2 1
5 6 7 4 1 3 6 7 5 4 4 4 3 4 4 4 4 5 5 5 5 5 5 5 5 5 4 3 3 3 2 2 2 2 3 4 3 4 3 3 3 3 2 2 2 2 2 2 1
6 7 6 3 1 2 5 6 5 5 6 6 5 5 5 4 4 5 5 5 5 5 5 5 5 4 4 3 2 2 2 2 2 2 3 3 3 3 3 3 2 2 2 2 3 2 2 1 1
7 6 6 4 2 3 3 6 6 5 5 4 4 4 5 6 6 6 5 4 4 5 5 4 4 5 4 3 3 3 2 2 2 2 2 2 3 3 3 3 2 2 2 1 1 1 2 1 1
6 2 4 3 2 4 4 5 4 5 5 5 5 5 5 5 5 5 5 5 4 4 4 4 4 4 3 3 4 4 3 2 2 1 2 2 3 3 2 2 2 2 2 1 1 2 1 1 1
2 2 3 4 4 4 4 4 6 3 4 5 5 5 5 5 6 6 5 5 4 4 4 4 4 4 4 3 3 3 2 2 2 2 2 2 2 2 2 2 2 1 1 1 1 1 1 1 0
0 1 2 2 1 5 7 6 5 3 4 4 4 5 5 4 5 5 4 4 4 4 4 4 4 4 4 3 3 3 3 3 3 2 2 1 1 1 1 1 1 1 1 1 1 1 1 1 1
0 2 0 1 3 6 4 5 5 2 1 3 4 4 4 5 5 5 5 5 4 4 4 4 4 4 4 3 3 3 3 3 3 3 2 2 1 1 0 1 1 0 0 0 0 0 1 1 1
3 3 4 4 4 2 2 5 4 2 3 4 4 3 3 3 3 4 5 4 4 4 4 4 4 3 3 3 2 2 2 2 2 2 2 2 1 1 0 0 0 1 1 1 0 1 1 1 1
2 3 1 1 2 3 5 3 2 3 3 3 3 2 2 2 3 3 3 3 4 4 4 5 5 4 3 3 3 2 2 2 2 1 1 1 1 0 1 0 1 1 1 1 1 1 1 1 2
1 1 1 2 3 5 5 4 3 2 2 2 2 2 1 2 3 3 2 3 3 3 3 4 4 4 3 3 2 2 2 1 1 1 1 1 0 0 1 1 1 1 1 1 1 1 2 2 2
2 1 2 3 3 3 3 2 1 3 3 3 2 1 1 1 2 2 2 2 2 2 3 3 3 3 3 3 2 2 2 2 2 1 1 1 0 0 1 1 2 2 2 2 2 2 2 3 3
1 2 3 3 4 3 3 3 2 3 3 3 2 1 1 1 1 2 2 1 1 2 2 2 3 3 3 3 2 2 2 2 2 2 1 1 1 1 1 2 2 2 3 2 3 3 3 3 4
Wind_Direction
296 273 254 255 239 233 240 238 231 157 58 40 34 38 51 41 39 111 119 80 96 108 108 104 97 96 96 92 88 86 83 79 77 75 73 71 70 69 68 67 67 65 65 64 64 63 63 62 60
288 275 253 235 234 235 236 218 213 96 92 84 50 48 62 72 72 99 104 87 97 105 108 101 95 96 96 93 89 87 85 81 77 74 73 71 71 70 69 68 67 66 65 64 63 62 63 62 60
274 258 246 225 231 238 242 168 124 102 102 107 78 40 47 74 89 98 101 108 101 104 102 99 95 96 97 94 91 88 86 83 78 74 72 71 71 71 70 68 67 67 66 65 64 62 62 60 58
258 230 246 245 241 244 257 80 101 115 112 104 113 97 78 49 70 99 112 110 104 102 101 100 96 97 97 95 93 90 86 84 81 77 74 72 72 73 72 69 67 65 66 66 65 63 61 59 54
240 237 228 236 243 247 260 106 136 145 149 135 131 120 102 72 86 107 113 107 104 101 101 105 98 96 95 93 92 90 87 84 82 78 76 74 73 74 72 69 65 64 66 67 66 65 62 57 51
237 234 231 230 235 232 217 205 181 158 141 135 138 129 109 109 104 115 114 107 103 100 99 108 103 99 94 92 90 87 86 84 81 77 75 74 73 71 69 68 65 63 66 67 67 65 61 57 49
243 237 244 246 240 232 200 178 186 169 151 155 147 128 124 127 114 117 114 110 106 102 102 101 107 107 101 94 88 85 82 81 80 76 72 69 69 70 67 64 63 62 64 65 64 63 60 56 49
273 268 249 247 246 250 214 105 80 106 110 64 69 128 137 141 126 121 114 110 106 101 100 101 98 100 106 101 93 88 83 79 80 75 69 65 64 65 64 61 59 60 59 62 63 61 58 51 43
276 253 246 249 251 228 142 123 62 42 75 67 51 54 96 122 123 119 117 108 105 102 98 101 101 98 105 110 101 92 88 82 79 74 70 68 65 66 66 61 58 57 54 56 59 58 54 45 36
227 239 248 293 312 314 152 134 132 126 125 121 93 83 105 123 133 136 138 137 125 110 98 95 101 100 101 106 103 93 89 82 74 67 65 64 62 59 65 64 60 55 49 49 51 51 56 46 31
223 241 270 316 333 347 64 107 99 168 185 186 159 140 134 138 145 149 151 144 135 128 108 94 89 93 94 100 101 88 85 82 77 67 52 50 55 62 60 65 60 54 49 45 39 34 22 31 29
235 249 276 299 337 350 346 131 187 226 133 51 117 139 144 153 160 162 157 140 128 119 113 97 91 87 82 93 103 102 93 85 77 67 57 54 50 52 52 50 45 43 38 36 25 11 21 30 27
230 238 248 282 305 320 322 270 247 233 154 89 107 128 148 158 160 153 142 133 126 122 116 109 102 96 87 81 92 92 85 87 83 70 60 57 58 50 49 43 43 35 34 35 14 14 29 26 27
237 214 226 227 236 256 263 246 237 238 173 148 142 149 155 157 158 148 142 141 138 134 124 113 109 103 100 93 84 80 82 84 81 73 63 55 58 56 51 50 43 32 31 25 19 26 26 26 35
253 242 235 227 221 212 231 245 225 215 183 175 168 161 156 151 146 150 145 141 139 136 125 121 122 113 111 105 95 83 78 79 79 78 70 59 54 49 50 49 46 24 21 28 26 30 32 36 37
250 241 237 210 208 202 209 244 206 190 188 188 180 166 158 150 150 142 135 133 133 134 128 126 129 119 111 105 98 92 84 80 79 74 70 59 51 50 53 50 45 27 32 33 30 32 43 35 30
222 238 238 215 202 189 213 242 196 174 173 179 173 166 158 149 147 141 135 135 132 133 132 127 121 118 112 111 107 94 84 77 71 64 59 54 50 43 55 54 46 30 41 41 30 31 37 39 27
224 244 251 232 196 198 222 236 212 170 172 182 174 167 162 161 161 145 135 132 127 123 124 121 115 116 117 112 100 92 83 75 70 66 61 56 50 43 47 52 44 37 43 40 41 41 36 44 22
271 265 266 277 174 209 237 240 226 204 201 206 191 172 169 162 137 130 130 130 128 127 125 124 116 115 119 122 118 114 105 90 75 67 65 59 54 47 49 48 44 42 45 36 43 51 48 35 29
261 268 271 290 14 235 259 258 236 206 203 201 193 183 172 156 139 132 127 134 139 136 134 131 126 123 125 130 124 122 120 105 96 79 68 61 56 48 47 51 40 43 50 45 46 52 41 11 20
247 248 263 266 296 247 279 280 227 206 196 190 181 175 168 162 157 149 141 141 143 141 144 140 133 128 127 127 111 106 91 87 77 75 69 55 56 53 50 48 42 35 47 60 49 56 67 48 357
251 278 284 260 242 249 198 267 243 192 187 196 191 179 172 154 149 151 152 156 155 150 144 136 135 126 120 124 128 137 137 128 130 126 97 69 60 56 51 49 48 42 40 37 24 42 50 85 16
263 319 283 262 245 270 227 242 272 184 201 203 189 175 162 158 155 157 159 160 152 144 143 139 133 127 130 131 134 143 126 115 119 116 107 89 74 67 59 50 49 47 46 38 25 19 30 55 56
246 311 290 266 236 251 222 211 265 218 209 183 171 164 162 157 151 148 145 139 141 142 139 139 138 133 136 138 135 136 133 131 130 128 130 125 109 81 56 43 45 42 44 38 8 5 353 335 303
187 117 116 225 219 241 198 205 242 227 155 142 151 160 158 153 152 151 150 153 151 148 148 146 144 144 143 142 141 142 138 146 153 154 156 148 130 82 66 13 26 13 6 341 324 311 285 278 271
218 184 182 215 228 251 222 223 238 148 108 92 93 110 121 135 149 153 159 160 159 157 156 155 156 153 152 153 148 142 136 144 142 140 147 159 167 178 182 326 314 305 298 291 272 274 278 274 256
210 226 247 275 282 262 231 225 230 110 98 98 97 106 137 157 155 150 150 153 157 163 168 170 164 158 162 161 154 151 148 135 136 137 118 128 155 193 165 242 276 278 278 264 257 246 262 271 259
281 238 138 210 226 250 251 220 223 175 152 126 127 141 150 152 151 150 152 157 162 164 168 165 163 161 160 158 167 166 148 136 131 146 143 137 126 29 206 226 246 260 267 256 246 250 251 254 262
183 200 220 239 245 227 253 253 346 151 151 145 137 114 140 144 152 152 152 155 151 144 149 160 159 153 154 158 161 153 154 155 145 156 169 176 205 216 238 248 246 248 248 249 244 248 250 250 258
191 204 185 199 251 235 249 257 349 67 82 99 106 116 137 145 128 132 147 143 139 151 157 162 157 157 162 161 159 158 162 163 166 181 192 202 220 231 250 259 259 260 261 252 244 245 250 248 253